Vertical_Velocity
-2 2 -2 -3 -3 -2 2 -0 -1 -1 -2 -1 -0 1 0 -1 1 -0 -1 -3 -0 2
-1 -2 -2 0 -1 1 -0 -1 1 -1 -1 0 -1 -1 -2 -1 -2 -3 -3 -2 -1 -1
0 1 1 -1 -2 -1 -0 -1 -2 -2 -1 -1 -2 -1 0 1 1 -0 -1 -2 -1 0
0 1 1 -1 -1 -0 -1 -1 -1 -1 -2 -2 -1 -0 -0 0 1 0 1 -0 -1 -2
-1 2 0 -1 -0 -0 -1 -1 -1 -2 -1 -2 -1 -1 -1 -0 -0 -1 -0 1 1 -0
-1 -1 -0 -0 -0 -1 -1 -1 -2 -2 -1 -1 -1 -0 -1 0 -0 -1 -1 -0 2 3
-1 -1 -1 0 -0 0 -1 -1 -1 -2 -2 -2 -2 -2 -1 -2 -1 -0 -1 -1 -2 -1
-1 -1 1 1 0 -1 0 -2 -3 -3 -2 -2 -2 -2 -2 -0 -0 -1 -1 -1 -1 -2
-0 1 0 0 1 -1 -1 -1 -2 -2 -3 -3 -2 -1 0 1 0 0 -0 -1 -0 -0
-0 0 0 0 -2 -1 -1 -1 -1 -2 -2 -1 -2 -2 -1 -1 -0 1 1 0 -0 -0
1 -0 0 -1 -1 -0 -0 -1 -2 -2 -1 -1 -1 -1 -2 -2 -2 -2 -1 -0 -0 -1
0 -0 -0 -1 -1 -0 -1 -2 -2 -1 -1 -2 -2 -2 -2 -2 -1 -1 -1 -1 -1 -2
1 -0 -1 -1 -0 -1 -2 -2 -2 -1 0 -0 -0 -1 -2 -1 -1 -1 -1 -0 -2 -3
-1 -1 -2 -1 -1 -1 -1 -1 -1 -1 -1 -2 -1 -0 -0 -0 -1 -1 -1 -0 -1 -1
Height
5635 5632 5629 5626 5623 5618 5614 5610 5607 5603 5598 5592 5588 5586 5583 5580 5577 5573 5569 5566 5564 5561
5627 5624 5621 5617 5613 5609 5605 5602 5598 5594 5589 5585 5582 5578 5576 5573 5570 5567 5563 5560 5556 5553
5619 5616 5612 5608 5604 5600 5597 5593 5589 5585 5581 5578 5574 5572 5569 5566 5563 5560 5557 5554 5551 5548
5610 5607 5604 5600 5596 5593 5589 5584 5580 5576 5573 5570 5567 5564 5562 5559 5556 5554 5551 5548 5545 5541
5601 5599 5596 5592 5589 5585 5581 5576 5573 5568 5565 5562 5559 5557 5555 5553 5550 5547 5545 5543 5539 5535
5593 5591 5588 5585 5582 5578 5574 5570 5566 5562 5558 5555 5553 5551 5549 5547 5545 5542 5540 5537 5534 5531
5586 5584 5581 5579 5576 5572 5568 5564 5560 5556 5552 5550 5548 5546 5544 5542 5539 5537 5535 5532 5529 5526
5579 5577 5575 5572 5570 5567 5563 5559 5555 5551 5548 5546 5544 5542 5540 5537 5534 5531 5529 5527 5524 5522
5573 5571 5569 5567 5564 5561 5557 5554 5550 5547 5544 5542 5540 5538 5535 5533 5530 5527 5524 5522 5519 5517
5568 5566 5563 5562 5559 5556 5554 5550 5546 5543 5541 5538 5536 5533 5530 5528 5525 5522 5520 5517 5514 5511
5562 5560 5559 5557 5554 5552 5549 5545 5542 5539 5536 5533 5531 5528 5525 5522 5519 5517 5514 5511 5508 5505
5557 5555 5553 5551 5549 5546 5543 5539 5536 5533 5531 5528 5525 5522 5519 5517 5514 5511 5508 5505 5502 5499
5552 5550 5548 5545 5543 5540 5537 5534 5531 5527 5524 5521 5518 5515 5513 5510 5507 5504 5501 5498 5494 5491
5546 5544 5542 5539 5537 5534 5531 5527 5524 5521 5518 5515 5512 5508 5505 5502 5499 5496 5493 5490 5486 5482